Location: Unspecified
(50.8683°N, 0.0000°E)
Time: 04:03:13
(UTC+00:00)

BRITE TORONTO - Visible Passes

Search period start: 04 April 2026 00:00
Search period end: 14 April 2026 00:00
Orbit: 597 x 709 km, 98.0° (Epoch: 28 March)

Date Brightness Start Highest point End Pass type
(mag) Time Alt. Az. Time Alt. Az. Time Alt. Az.
4 Apr ? 01:18:45 35° N 01:18:45 35° N 01:21:25 10° N visible
4 Apr ? 02:56:36 11° NW 02:56:36 11° NW 02:57:01 10° NW visible
5 Apr ? 00:08:32 19° NE 00:08:32 19° NE 00:11:11 10° NNE visible
5 Apr ? 01:46:22 32° NNW 01:46:22 32° NNW 01:48:51 10° NNW visible
6 Apr ? 00:36:09 28° NE 00:36:09 28° NE 00:39:07 10° N visible
6 Apr ? 02:14:00 24° NW 02:14:00 24° NW 02:16:04 10° NNW visible
7 Apr ? 01:03:46 39° NNE 01:03:46 39° NNE 01:06:48 10° N visible
7 Apr ? 02:41:37 16° WNW 02:41:37 16° WNW 02:42:57 10° NW visible
7 Apr ? 23:53:32 15° ENE 23:53:38 15° ENE 23:56:09 10° NNE visible
8 Apr ? 01:31:23 42° NNW 01:31:23 42° NNW 01:34:18 10° NNW visible
9 Apr ? 00:21:09 24° NE 00:21:09 24° NE 00:24:18 10° N visible
9 Apr ? 01:58:59 32° NW 01:58:59 32° NW 02:01:37 10° NNW visible
10 Apr ? 00:48:45 36° NE 00:48:45 36° NE 00:52:06 10° N visible
10 Apr ? 02:26:35 22° WNW 02:26:35 22° WNW 02:28:42 10° NW visible
10 Apr ? 23:38:30 11° ENE 23:39:18 11° NE 23:40:42 10° NE visible
11 Apr ? 01:16:21 50° N 01:16:21 50° N 01:19:41 10° N visible
11 Apr ? 02:54:11 14° WNW 02:54:11 14° WNW 02:55:18 10° NW visible
12 Apr ? 00:06:06 18° ENE 00:06:22 18° ENE 00:09:21 10° NNE visible
12 Apr ? 01:43:57 45° NW 01:43:57 45° NW 01:47:06 10° NNW visible
13 Apr ? 00:33:42 29° ENE 00:33:42 29° ENE 00:37:18 10° N visible
13 Apr ? 02:11:32 30° WNW 02:11:32 30° WNW 02:14:18 10° NNW visible
